Date String (YYYY-MM-DD hh:mm:ss) UTC,Instrument flags,absolute air pressure of the measurement (hPa),sample flow rate (lpm),inlet stack bypass flow (lpm),air temperature of the measurement (°C),ambient temperature measured by the external sensor (°C),aerosol sample conditioner tube jacket temperature (°C),OPC LED temperature (°C),internal box temperature (°C),relative humidity of the measurement (%),span deviation,mass concentration of particles derived from Lorenz-Mie calculation of OPC scattering (μg/m³),mass concentration of particles derived from Lorenz-Mie calculation of OPC scattering (μg/m³),mass concentration of particles derived from Lorenz-Mie calculation of OPC scattering (μg/m³)
DateTimeUTC,F1_M11,P_M11,Q1_M11,Q2_M11,T1_M11,T2_M11,T3_M11,T4_M11,T5_M11,U1_M11,ZSPAN_M11,X0_M11,X2_M11,X1_M11
2024-05-24 22:00:00,SystemResetWarning,0823.5,5.00,000.00,028.8,028.2,000.0,037.0,030.6,011.2,0000.0,0013.33,0002.50,0001.05
2024-05-24 22:01:00,SystemResetWarning,0823.5,5.01,000.00,028.8,028.2,000.0,037.0,030.6,010.7,0000.0,0012.64,0002.56,0001.06
2024-05-24 22:02:00,SystemResetWarning,0823.5,5.00,000.00,028.9,028.2,000.0,037.0,030.6,011.4,0000.0,0011.23,0002.58,0001.07
2024-05-24 22:03:00,SystemResetWarning,0823.5,5.01,000.00,028.9,028.2,000.0,037.0,030.6,011.5,0000.0,0010.51,0002.55,0001.08
2024-05-24 22:04:00,SystemResetWarning,0823.5,5.00,000.00,028.9,028.2,000.0,037.1,030.6,011.8,0000.0,0010.20,0002.50,0001.07
2024-05-24 22:05:00,SystemResetWarning,0823.5,5.00,000.00,028.9,028.2,000.0,037.1,030.6,011.4,0000.0,0010.52,0002.52,0001.08
2024-05-24 22:06:00,SystemResetWarning,0823.5,4.99,000.00,028.9,028.2,000.0,037.1,030.7,011.0,0000.0,0011.04,0002.56,0001.09
2024-05-24 22:07:00,SystemResetWarning,0823.4,4.99,000.00,028.9,028.3,000.0,037.1,030.7,010.9,0000.0,0011.86,0002.60,0001.09
2024-05-24 22:08:00,SystemResetWarning,0823.4,4.99,000.00,029.0,028.3,000.0,037.1,030.7,011.1,0000.0,0012.32,0002.62,0001.09
2024-05-24 22:09:00,SystemResetWarning,0823.4,5.01,000.00,029.0,028.3,000.0,037.1,030.7,010.9,0000.0,0012.35,0002.63,0001.10
2024-05-24 22:10:00,SystemResetWarning,0823.4,5.01,000.00,029.0,028.3,000.0,037.2,030.7,010.6,0000.0,0011.94,0002.68,0001.11
2024-05-24 22:11:00,SystemResetWarning,0823.4,5.00,000.00,029.0,028.3,000.0,037.2,030.7,010.5,0000.0,0012.31,0002.67,0001.12
2024-05-24 22:12:00,SystemResetWarning,0823.4,5.00,000.00,029.0,028.3,000.0,037.2,030.7,010.8,0000.0,0013.95,0002.77,0001.13
2024-05-24 22:13:00,SystemResetWarning,0823.4,5.00,000.00,029.0,028.3,000.0,037.2,030.7,011.2,0000.0,0014.26,0002.75,0001.13
2024-05-24 22:14:00,SystemResetWarning,0823.4,5.00,000.00,029.0,028.4,000.0,037.2,030.8,010.6,0000.0,0015.02,0002.84,0001.13
2024-05-24 22:15:00,SystemResetWarning,0823.4,5.00,000.00,029.1,028.4,000.0,037.3,030.8,010.4,0000.0,0014.96,0002.83,0001.14
2024-05-24 22:16:00,SystemResetWarning,0823.4,4.99,000.00,029.1,028.4,000.0,037.3,030.8,011.0,0000.0,0014.91,0002.86,0001.15
2024-05-24 22:17:00,SystemResetWarning,0823.4,4.99,000.00,029.1,028.4,000.0,037.3,030.8,011.9,0000.0,0014.44,0002.86,0001.15
2024-05-24 22:18:00,SystemResetWarning,0823.5,5.00,000.00,029.1,028.4,000.0,037.3,030.8,011.1,0000.0,0013.93,0002.84,0001.16
2024-05-24 22:19:00,SystemResetWarning,0823.4,5.00,000.00,029.1,028.5,000.0,037.3,030.8,010.3,0000.0,0013.96,0002.83,0001.17
2024-05-24 22:20:00,SystemResetWarning,0823.4,5.00,000.00,029.1,028.5,000.0,037.3,030.9,010.3,0000.0,0013.65,0002.83,0001.17
2024-05-24 22:21:00,SystemResetWarning,0823.5,4.99,000.00,029.2,028.5,000.0,037.4,030.9,011.1,0000.0,0013.23,0002.83,0001.17
2024-05-24 22:22:00,SystemResetWarning,0823.5,5.01,000.00,029.2,028.5,000.0,037.4,030.9,010.7,0000.0,0013.86,0002.90,0001.18
2024-05-24 22:23:00,SystemResetWarning,0823.5,5.02,000.00,029.2,028.5,000.0,037.4,030.9,010.6,0000.0,0012.69,0002.80,0001.16
2024-05-24 22:24:00,SystemResetWarning,0823.4,4.99,000.00,029.2,028.5,000.0,037.4,030.9,010.7,0000.0,0012.56,0002.82,0001.16
2024-05-24 22:25:00,SystemResetWarning,0823.4,4.99,000.00,029.2,028.5,000.0,037.4,030.9,010.8,0000.0,0012.35,0002.79,0001.16
2024-05-24 22:26:00,SystemResetWarning,0823.4,5.00,000.00,029.2,028.6,000.0,037.4,031.0,010.7,0000.0,0012.12,0002.71,0001.16
2024-05-24 22:27:00,SystemResetWarning,0823.4,5.02,000.00,029.2,028.6,000.0,037.5,031.0,010.7,0000.0,0011.79,0002.63,0001.15
2024-05-24 22:28:00,SystemResetWarning,0823.3,5.01,000.00,029.3,028.6,000.0,037.5,031.0,010.8,0000.0,0013.47,0002.59,0001.15
2024-05-24 22:29:00,SystemResetWarning,0823.3,4.99,000.00,029.3,028.6,000.0,037.5,031.0,010.6,0000.0,0013.80,0002.52,0001.15
2024-05-24 22:30:00,SystemResetWarning,0823.2,4.99,000.00,029.3,028.6,000.0,037.5,031.0,010.0,0000.0,0013.42,0002.54,0001.15
2024-05-24 22:31:00,SystemResetWarning,0823.2,5.00,000.00,029.3,028.6,000.0,037.5,031.0,010.0,0000.0,0014.70,0002.61,0001.15
2024-05-24 22:32:00,SystemResetWarning,0823.3,5.00,000.00,029.3,028.7,000.0,037.5,031.0,010.4,0000.0,0015.11,0002.64,0001.14
2024-05-24 22:33:00,SystemResetWarning,0823.3,5.01,000.00,029.3,028.7,000.0,037.5,031.0,010.4,0000.0,0014.77,0002.53,0001.13
2024-05-24 22:34:00,SystemResetWarning,0823.3,5.00,000.00,029.4,028.7,000.0,037.6,031.1,010.7,0000.0,0016.24,0002.53,0001.13
2024-05-24 22:35:00,SystemResetWarning,0823.3,5.01,000.00,029.4,028.7,000.0,037.6,031.1,010.0,0000.0,0015.98,0002.47,0001.14
2024-05-24 22:36:00,SystemResetWarning,0823.3,4.99,000.00,029.4,028.7,000.0,037.6,031.1,009.6,0000.0,0015.53,0002.36,0001.13
2024-05-24 22:37:00,SystemResetWarning,0823.3,4.99,000.00,029.4,028.8,000.0,037.6,031.1,009.6,0000.0,0015.64,0002.38,0001.15
2024-05-24 22:38:00,SystemResetWarning,0823.3,5.00,000.00,029.4,028.8,000.0,037.6,031.2,009.4,0000.0,0016.02,0002.43,0001.14
2024-05-24 22:39:00,SystemResetWarning,0823.3,5.00,000.00,029.5,028.8,000.0,037.7,031.2,009.6,0000.0,0015.51,0002.44,0001.12
2024-05-24 22:40:00,SystemResetWarning,0823.4,5.00,000.00,029.5,028.8,000.0,037.7,031.2,009.6,0000.0,0015.70,0002.48,0001.12
2024-05-24 22:41:00,SystemResetWarning,0823.3,5.00,000.00,029.5,028.8,000.0,037.7,031.2,009.1,0000.0,0015.92,0002.50,0001.11
2024-05-24 22:42:00,SystemResetWarning,0823.3,5.01,000.00,029.5,028.9,000.0,037.7,031.2,009.5,0000.0,0015.96,0002.47,0001.09
2024-05-24 22:43:00,SystemResetWarning,0823.4,5.01,000.00,029.5,028.9,000.0,037.7,031.3,010.0,0000.0,0015.18,0002.46,0001.10
2024-05-24 22:44:00,SystemResetWarning,0823.3,5.00,000.00,029.5,028.9,000.0,037.7,031.3,009.0,0000.0,0014.84,0002.52,0001.11
2024-05-24 22:45:00,SystemResetWarning,0823.3,5.00,000.00,029.6,028.9,000.0,037.8,031.3,009.2,0000.0,0012.99,0002.48,0001.12
2024-05-24 22:46:00,SystemResetWarning,0823.3,5.00,000.00,029.6,028.9,000.0,037.8,031.3,009.6,0000.0,0012.00,0002.50,0001.13
2024-05-24 22:47:00,SystemResetWarning,0823.3,4.99,000.00,029.6,028.9,000.0,037.8,031.3,009.0,0000.0,0012.40,0002.56,0001.13
2024-05-24 22:48:00,SystemResetWarning,0823.3,5.00,000.00,029.6,028.9,000.0,037.8,031.3,009.0,0000.0,0013.09,0002.54,0001.12
2024-05-24 22:49:00,SystemResetWarning,0823.2,5.01,000.00,029.6,029.0,000.0,037.8,031.4,008.7,0000.0,0012.86,0002.51,0001.11
2024-05-24 22:50:00,SystemResetWarning,0823.1,4.99,000.00,029.6,029.0,000.0,037.8,031.4,008.9,0000.0,0013.00,0002.48,0001.13
2024-05-24 22:51:00,SystemResetWarning,0823.1,4.99,000.00,029.7,029.0,000.0,037.9,031.4,009.9,0000.0,0012.16,0002.46,0001.14
2024-05-24 22:52:00,SystemResetWarning,0823.1,5.01,000.00,029.7,029.0,000.0,037.9,031.4,009.9,0000.0,0011.91,0002.45,0001.14
2024-05-24 22:53:00,SystemResetWarning,0823.2,5.00,000.00,029.7,029.0,000.0,037.9,031.4,010.1,0000.0,0011.47,0002.41,0001.15
2024-05-24 22:54:00,SystemResetWarning,0823.3,5.00,000.00,029.7,029.0,000.0,037.9,031.4,010.5,0000.0,0011.52,0002.41,0001.15
2024-05-24 22:55:00,SystemResetWarning,0823.2,5.01,000.00,029.7,029.1,000.0,037.9,031.4,009.6,0000.0,0011.34,0002.39,0001.15
2024-05-24 22:56:00,SystemResetWarning,0823.2,5.00,000.00,029.7,029.1,000.0,037.9,031.4,010.1,0000.0,0011.50,0002.42,0001.15
2024-05-24 22:57:00,SystemResetWarning,0823.2,5.01,000.00,029.7,029.1,000.0,038.0,031.5,010.1,0000.0,0011.66,0002.46,0001.14
2024-05-24 22:58:00,SystemResetWarning,0823.2,4.99,000.00,029.8,029.1,000.0,038.0,031.5,010.0,0000.0,0011.19,0002.50,0001.16
2024-05-24 22:59:00,SystemResetWarning,0823.2,5.00,000.00,029.8,029.1,000.0,038.0,031.5,009.7,0000.0,0010.76,0002.55,0001.17
